Theta_e
298 298 298 298 297 297 295 289 281 297 298 286 285 284 288 292 290 289 289 290 286 285 284 283 283 285 284 286 285 282 283 283 277 278 280 282 282 281 281 284 276 275 276 280
298 298 297 297 297 297 292 283 284 295 295 280 282 286 286 289 289 287 287 287 290 289 286 285 283 283 285 286 284 283 283 281 276 276 278 279 279 280 279 276 279 273 279 285
297 298 297 297 297 296 294 284 279 284 287 286 283 283 283 283 289 289 288 288 288 286 285 287 285 284 284 285 284 287 284 281 280 280 281 280 276 278 279 280 278 278 279 285
297 297 297 297 296 296 292 284 280 282 277 282 282 282 282 282 282 287 289 287 287 286 283 283 282 284 283 284 285 283 282 280 277 278 279 279 279 278 278 276 280 281 285 279
297 297 297 297 297 296 289 281 280 283 281 280 279 280 278 278 281 285 284 285 286 287 286 286 283 284 283 283 283 282 282 278 277 278 278 277 276 279 279 278 281 277 279 279
296 297 297 296 296 294 287 288 287 282 278 278 276 277 278 278 280 282 287 283 285 285 288 290 287 289 288 287 283 280 280 280 279 279 276 278 278 278 278 280 281 281 278 284
296 296 296 296 295 294 290 288 286 280 274 276 276 277 279 278 279 278 281 282 279 287 289 288 286 285 284 284 283 284 280 279 279 276 275 274 285 283 284 282 284 282 283 284
296 296 296 296 295 295 291 290 285 281 275 277 277 278 278 280 281 279 280 282 284 289 289 283 279 279 279 278 279 281 282 280 273 275 275 279 284 280 280 280 284 286 283 286
296 296 295 296 294 294 292 288 290 284 277 275 280 277 278 276 277 278 279 285 287 287 286 283 277 275 278 273 274 279 279 280 280 271 274 274 283 281 282 283 280 285 287 286
296 295 295 296 294 294 292 289 289 285 278 280 279 276 277 280 279 277 280 282 283 286 284 280 279 278 276 274 272 272 274 274 275 274 274 277 283 281 282 281 286 283 285 286
295 295 295 295 294 294 292 289 290 285 279 280 282 282 279 280 280 276 281 280 281 280 280 282 280 279 275 276 276 274 275 273 273 273 273 273 281 279 280 288 285 284 284 285
294 294 295 295 294 294 293 286 290 290 283 281 286 286 287 286 284 282 282 280 280 280 280 282 283 278 274 276 274 277 276 279 276 277 278 283 283 285 286 285 285 285 285 285
293 294 295 295 295 294 293 289 289 287 282 281 281 280 285 288 288 289 280 282 284 281 284 281 280 280 279 275 275 275 277 279 277 277 284 281 282 285 285 285 285 286 287 287
293 294 294 295 294 294 293 288 289 287 282 276 277 284 282 287 289 287 287 285 286 286 284 279 278 275 281 280 281 280 279 279 277 278 282 284 284 285 287 287 287 286 286 286
293 293 293 294 294 293 292 291 290 290 282 275 277 280 282 287 286 286 287 285 283 282 279 278 277 281 278 276 278 278 278 278 280 281 286 288 289 289 288 286 287 287 287 286
293 293 293 294 292 291 287 281 288 290 288 279 273 282 279 281 284 284 283 285 284 283 281 280 283 285 281 279 280 282 281 282 285 287 287 286 287 287 288 287 287 287 286 286
293 293 293 292 291 289 283 279 285 291 289 280 274 274 277 281 283 283 283 285 283 283 282 281 282 282 282 280 281 284 283 284 285 285 283 284 284 287 288 285 286 282 282 282
293 292 293 291 291 289 284 288 290 291 284 281 274 273 274 282 278 277 284 281 282 282 282 284 282 282 279 277 282 285 285 284 283 283 284 288 285 282 282 280 278 279 280 282
293 292 291 286 284 281 282 289 290 287 283 275 273 271 270 280 279 281 282 283 278 284 280 281 282 281 277 283 283 281 284 284 287 286 281 275 279 284 285 281 273 278 282 282
291 282 276 271 276 286 288 284 279 279 280 278 273 271 272 278 277 277 278 280 278 276 280 281 279 280 283 280 284 287 287 288 284 281 283 276 278 280 282 281 282 281 282 282
277 272 272 276 284 282 277 272 273 272 274 275 274 274 273 279 275 275 279 277 279 275 277 278 278 276 279 283 282 285 287 287 285 288 284 280 281 280 277 280 280 276 275 275
276 276 275 274 271 272 270 268 270 272 272 273 271 272 277 276 281 277 278 274 277 275 275 276 274 279 281 283 286 287 280 284 278 275 276 273 273 270 268 269 269 266 265 265
273 269 266 268 265 264 265 266 269 270 275 275 274 274 277 277 279 277 276 273 274 273 275 275 277 277 275 271 270 270 268 270 270 267 266 265 266 263 262 263 262 262 263 264
267 262 259 262 260 266 270 271 271 275 275 274 275 276 277 277 277 277 273 271 268 269 269 273 276 271 267 266 265 265 265 264 266 265 263 262 262 262 261 260 260 259 262 262
265 263 260 260 265 267 269 271 270 274 276 274 274 276 276 275 273 271 269 266 267 273 275 274 269 265 263 264 263 263 263 262 263 262 262 261 260 260 262 261 261 262 262 263
264 263 263 260 263 267 268 270 270 277 276 278 279 275 274 274 273 267 267 267 269 271 268 268 265 263 262 261 260 260 259 260 261 260 260 262 261 261 261 262 262 263 263 265
260 263 255 262 264 269 270 269 272 276 276 273 274 273 273 271 270 272 272 269 270 268 267 265 263 262 261 259 260 259 260 261 261 261 261 261 261 261 263 263 264 265 266 265
Wind_Speed
18 17 18 16 16 17 7 3 4 3 2 5 3 12 5 4 2 4 8 2 4 8 7 7 5 8 2 5 6 6 4 2 5 3 2 2 2 4 7 4 6 0 2 8
18 19 17 17 16 14 3 4 4 1 1 6 10 5 7 6 10 6 4 7 7 3 6 4 7 5 2 5 7 7 6 4 3 2 3 0 7 7 4 4 1 8 6 5
19 20 16 16 13 14 4 3 5 3 3 6 8 7 10 10 2 9 5 2 3 4 5 3 3 6 3 2 3 6 5 3 4 7 2 4 7 11 12 4 5 7 10 6
20 20 19 17 11 13 0 4 4 1 3 5 12 12 9 11 12 4 5 8 11 8 7 5 5 4 3 1 2 3 5 6 4 4 3 2 3 6 14 12 9 10 1 12
22 20 18 19 18 16 5 4 4 2 4 7 11 11 6 12 19 10 18 6 6 11 14 10 10 9 6 6 6 5 3 2 1 3 1 3 7 9 14 17 9 12 16 22
20 23 20 19 18 9 5 4 3 5 10 11 9 13 15 12 11 8 3 10 15 17 17 4 2 2 3 8 11 9 7 7 5 5 4 6 13 14 17 10 10 12 15 23
24 22 23 21 16 14 7 7 4 5 6 6 10 13 14 14 17 15 14 10 7 7 12 13 8 8 5 5 6 5 7 6 2 2 4 10 2 2 7 18 14 18 12 14
25 23 23 24 18 19 10 6 6 5 8 11 14 14 12 17 15 15 17 20 12 11 10 4 4 3 2 2 2 7 5 5 4 5 7 10 13 6 9 10 10 22 24 22
26 26 23 24 19 18 9 6 4 6 3 7 9 2 10 12 11 11 15 10 3 15 5 6 10 9 5 7 4 4 2 2 2 4 5 7 2 1 2 3 7 2 17 11
28 22 23 23 19 17 8 3 7 4 4 5 5 5 6 3 7 8 7 3 4 10 6 4 7 7 3 10 14 8 6 3 8 5 5 9 9 5 5 3 2 1 7 6
25 23 22 24 20 18 9 4 11 5 2 6 8 10 10 10 8 11 2 2 6 5 11 8 6 5 8 6 8 9 11 11 6 4 3 12 9 7 7 2 1 3 4 5
22 23 24 25 22 21 16 8 6 8 5 5 3 9 15 21 19 7 3 5 2 3 5 3 1 4 4 5 7 4 7 8 9 12 10 2 13 1 4 1 2 2 2 4
23 22 24 25 24 21 20 9 5 5 6 5 6 12 18 11 16 13 6 3 3 4 2 4 5 7 6 8 6 4 6 4 4 4 9 15 10 8 9 6 7 3 4 4
23 24 22 25 22 20 19 10 7 7 2 4 6 2 7 8 13 18 17 14 2 3 3 4 4 5 5 5 2 6 4 15 8 6 9 6 12 13 11 7 8 10 8 9
25 25 12 25 19 18 14 7 7 8 8 1 3 2 5 4 13 17 17 14 10 4 5 5 6 4 4 3 2 6 8 8 7 6 10 2 2 4 6 9 8 10 7 5
22 22 14 19 12 3 3 5 7 13 12 5 5 2 3 2 8 10 12 11 8 5 4 4 5 7 5 7 6 3 12 9 5 5 5 6 2 4 6 7 9 8 7 9
20 17 10 12 3 4 3 3 2 12 8 4 3 4 1 5 6 6 6 7 6 6 6 7 8 11 2 5 7 6 14 16 12 7 4 4 7 9 5 9 6 3 5 7
18 8 15 6 2 3 4 2 3 12 3 2 3 4 1 9 6 7 6 6 5 5 5 2 5 1 4 8 6 5 7 9 7 9 14 13 0 3 7 4 2 5 8 7
16 14 11 5 2 2 2 3 9 1 3 5 4 5 5 7 6 4 4 5 6 5 7 7 7 6 8 7 9 9 9 11 14 14 5 3 7 14 12 4 2 7 9 7
19 6 4 1 3 4 2 2 2 1 2 3 4 1 8 6 7 6 4 5 5 5 8 5 5 9 9 6 10 9 15 16 7 4 8 4 7 9 7 9 7 7 7 8
4 3 2 2 5 2 2 1 2 3 5 5 4 11 8 6 5 5 4 2 4 4 4 8 5 6 8 11 13 16 16 11 14 12 3 4 3 2 3 6 4 4 5 5
5 5 3 2 4 2 2 4 3 5 3 3 4 6 11 3 3 3 4 3 6 7 7 6 5 6 9 14 21 21 1 6 4 4 1 2 3 3 3 4 4 2 4 7
4 6 5 4 3 3 3 3 2 5 5 3 2 3 6 3 3 3 3 8 7 3 4 4 6 2 5 7 4 4 4 6 5 4 4 3 2 3 3 4 3 5 6 6
4 4 2 3 3 3 3 4 5 5 6 5 2 2 4 3 4 4 7 2 3 2 2 5 2 8 9 7 4 2 4 5 5 6 4 5 5 5 4 4 3 4 5 7
3 3 2 2 3 5 5 4 5 4 8 4 3 2 2 2 5 3 2 3 5 5 5 3 4 6 5 6 6 6 5 4 5 4 4 4 4 4 5 6 5 5 4 6
4 3 1 2 1 5 3 3 5 4 7 3 2 3 2 4 4 3 6 1 3 0 3 3 5 5 4 5 5 5 3 3 4 4 3 4 5 6 5 4 7 6 6 9
3 4 1 1 3 6 4 1 4 4 4 2 2 2 4 3 2 4 2 2 2 2 1 3 3 4 5 5 4 3 4 4 5 6 8 6 5 6 6 9 8 8 10 9
Wind_Direction
312 307 315 321 328 339 34 316 273 37 46 240 225 235 224 270 227 221 244 202 172 191 174 183 229 225 232 155 155 166 175 114 167 193 68 320 242 221 191 212 187 249 324 267
307 310 306 314 316 328 9 286 264 317 214 256 226 272 273 269 239 205 210 231 227 132 184 222 205 199 45 165 164 180 173 208 131 197 195 131 218 194 171 105 105 193 182 241
302 302 300 302 310 314 348 287 275 269 196 260 291 250 237 250 248 237 236 191 129 165 176 206 231 206 171 11 179 157 153 181 240 256 37 120 194 195 188 182 180 159 228 290
299 301 300 295 293 295 34 203 270 287 280 258 254 258 307 252 227 210 270 207 220 201 201 197 216 182 177 124 312 174 191 209 190 249 247 244 244 188 188 207 218 208 220 206
296 294 289 286 279 271 249 253 256 256 237 307 299 283 270 298 294 256 230 253 212 201 216 198 199 178 187 193 160 174 299 185 139 277 132 240 261 230 197 222 243 257 269 278
283 284 287 278 279 288 255 216 228 251 268 252 268 273 275 261 303 293 313 343 281 223 224 219 136 188 142 170 165 159 176 161 163 228 54 337 274 222 204 205 205 208 220 239
278 283 282 272 266 265 259 227 218 233 226 250 260 275 283 283 275 253 286 323 325 333 106 106 76 70 84 146 130 148 162 142 123 123 142 233 323 146 213 221 235 215 257 257
283 281 278 269 257 263 268 230 207 221 242 250 256 247 268 277 259 257 274 271 255 257 186 154 149 169 130 172 37 167 175 158 143 180 218 310 291 198 174 179 260 210 222 245
283 267 271 267 261 268 275 215 188 217 186 211 251 288 273 272 277 275 255 256 273 218 216 179 192 202 157 190 126 70 144 331 257 166 206 233 313 127 146 145 275 292 207 224
279 273 263 256 254 253 260 217 186 224 225 209 224 233 257 250 272 279 295 283 326 223 222 219 202 205 145 171 163 160 140 172 205 190 226 283 242 148 149 175 315 78 180 170
284 273 246 253 246 239 228 213 188 198 251 269 242 243 243 251 255 261 272 307 198 248 215 208 182 207 194 155 151 171 163 158 183 157 192 261 144 95 200 196 116 133 173 184
274 271 250 247 246 233 225 235 183 198 218 252 204 246 242 241 245 277 237 236 236 305 311 351 275 165 171 162 195 183 200 194 180 197 206 40 197 30 234 17 126 181 182 192
276 267 266 252 248 240 237 240 187 193 219 218 219 230 241 230 228 228 252 215 220 232 222 307 293 239 157 174 215 136 228 165 202 151 227 231 231 251 244 244 237 228 215 205
277 268 258 256 245 247 248 248 235 206 226 222 247 201 219 214 222 217 216 242 217 145 213 286 264 292 293 195 154 192 173 149 163 264 277 237 229 226 239 242 237 250 245 229
268 274 277 257 240 248 260 249 208 202 216 261 248 295 241 194 199 216 221 217 220 211 215 230 262 272 257 261 134 207 189 160 175 204 219 219 227 171 174 211 225 228 227 241
254 262 246 239 247 340 296 240 206 209 195 214 227 218 234 238 220 207 224 214 216 216 201 218 227 231 219 252 202 211 194 198 195 209 184 196 146 234 220 233 238 237 221 231
240 250 231 234 202 135 203 220 286 183 160 164 189 271 146 161 181 207 217 204 212 208 216 214 233 246 190 287 233 192 200 207 210 216 105 265 210 242 200 209 239 221 246 247
222 180 229 195 171 131 246 211 17 169 139 153 210 227 236 186 176 196 184 207 207 218 211 211 244 360 196 250 237 214 191 209 235 230 212 237 107 306 255 211 225 252 249 255
150 183 122 78 83 208 244 232 146 238 220 181 179 203 208 168 201 199 177 198 209 202 210 208 170 212 227 230 198 206 201 189 216 224 227 136 226 259 272 265 216 246 273 259
123 73 74 9 223 258 336 47 121 196 205 210 228 19 222 181 179 193 201 196 197 218 208 140 211 236 237 241 232 215 216 214 144 158 261 204 248 228 253 241 260 243 263 283
46 79 140 244 323 79 68 121 236 220 218 200 210 197 179 196 169 187 205 313 244 219 187 190 197 255 221 198 216 228 230 198 204 213 213 109 143 205 255 278 249 282 285 277
154 128 93 48 45 71 150 223 272 246 239 187 209 227 196 135 178 127 157 194 256 204 137 171 218 238 235 197 213 224 146 221 91 60 141 339 331 327 296 306 314 330 318 299
38 47 55 47 326 47 190 262 266 323 307 235 218 234 144 148 207 135 112 246 219 188 168 193 229 339 358 360 331 18 24 64 85 80 64 58 43 29 49 337 321 315 309 301
67 90 2 108 314 217 235 220 223 251 249 251 268 242 174 161 146 165 219 213 308 57 173 231 350 355 330 337 337 324 20 34 89 93 73 61 29 17 22 25 341 329 327 320
97 71 267 223 260 253 251 266 281 253 263 212 189 201 156 116 147 192 125 208 235 201 205 101 358 326 329 2 12 22 30 27 42 46 52 50 39 53 54 19 13 29 12 11
85 60 79 269 298 279 279 249 263 303 306 235 213 138 187 199 194 143 237 143 225 26 346 344 332 331 351 355 359 0 351 66 61 54 71 72 57 60 58 27 30 23 17 33
81 256 325 153 270 250 265 220 268 303 296 356 349 244 202 80 219 200 5 68 311 330 348 336 309 336 349 354 351 1 34 68 63 55 44 53 52 61 63 59 28 39 43 45